St. Johns, AZ

2:28 PM MST on November 23, 2017 (GMT -0700)
Saint Johns Industrial

Weather History for KSJN - February, 2013

Change the Weather History Date:

Monday, February 4, 2013

  Actual Average (KLSB) Record (KLSB)
Temperature  
Mean Temperature 36 °F -  
Max Temperature 50 °F 60 °F 68 °F (2015)
Min Temperature 21 °F 25 °F 15 °F (2016)
Degree Days  
Heating Degree Days 30    
Moisture  
Dew Point 28 °F    
Average Humidity 80    
Maximum Humidity 100    
Minimum Humidity 26    
Precipitation  
Precipitation 0.00 in - - ()
Sea Level Pressure  
Sea Level Pressure 30.11 in    
Wind  
Wind Speed 2 mph (NW)    
Max Wind Speed 13 mph    
Max Gust Speed 48 mph    
Visibility 6 miles    
Events Fog    
Averages and records for this station are not official NWS values.
T = Trace of Precipitation, MM = Missing Value Source: NWS Daily Summary

Daily Weather History Graph

Daily Weather History Graph

Search for Another Location

Airport or City:

Trip Planner

Search our weather history database for the weather conditions in past years. The results will help you decide how hot, cold, wet, or windy it might be!

Date:

Astronomy

Feb. 04, 2013 Rise Set
Actual Time 7:12 AM MST 5:50 PM MST
Civil Twilight 6:46 AM MST 6:16 PM MST
Nautical Twilight 6:16 AM MST 6:46 PM MST
Astronomical Twilight 5:47 AM MST 7:16 PM MST
Moon 1:49 AM MST (2/4) 12:20 PM MST (2/4)
Length of Visible Light 11h 30m
Length of Day
10h 37m
Last Quarter, 36% of the Moon is Illuminated
Feb 4
Last Quarter
Feb 10
New
Feb 17
First Quarter
Feb 25
Full
Mar 4
Last Quarter

Hourly Weather History & Observations

Time (MST) Temp. Windchill Dew Point Humidity Pressure Visibility Wind Dir Wind Speed Gust Speed Precip Events Conditions
12:54 AM 37.0 °F - 34.0 °F 89% 30.03 in 10.0 mi Calm Calm - N/A   Mostly Cloudy
1:54 AM 32.0 °F - 30.9 °F 96% 30.04 in 8.0 mi Calm Calm - N/A   Clear
3:54 AM 28.9 °F - 27.0 °F 92% 30.06 in 4.0 mi Calm Calm - N/A   Clear
4:35 AM 30.2 °F 26.7 °F 26.6 °F 86% 30.12 in 6.0 mi NNW 3.5 mph - N/A   Scattered Clouds
4:40 AM 28.4 °F 22.2 °F 26.6 °F 93% 30.12 in 0.5 mi North 5.8 mph - N/A Fog Light Freezing Fog
4:54 AM 30.9 °F 27.5 °F 30.0 °F 96% 30.07 in 0.2 mi North 3.5 mph - N/A Fog Light Freezing Fog
5:54 AM 30.0 °F - 28.9 °F 96% 30.09 in 0.2 mi Calm Calm - N/A Fog Light Freezing Fog
6:54 AM 26.1 °F - 24.1 °F 92% 30.13 in 0.5 mi Calm Calm - N/A Fog Light Freezing Fog
7:08 AM 26.6 °F - 24.8 °F 93% 30.13 in 0.8 mi Calm Calm - N/A   Overcast
7:19 AM 26.6 °F - 24.8 °F 93% 30.14 in 0.5 mi Calm Calm - N/A Fog Light Freezing Fog
7:38 AM 24.8 °F - 23.0 °F 93% 30.14 in 0.2 mi Calm Calm - N/A Fog Light Freezing Fog
7:54 AM 27.0 °F 23.0 °F 26.1 °F 96% 30.13 in 4.0 mi ESE 3.5 mph - N/A   Partly Cloudy
8:15 AM 28.4 °F - 26.6 °F 93% 30.14 in 1.5 mi Calm Calm - N/A   Partly Cloudy
8:26 AM 28.4 °F - 28.4 °F 100% 30.14 in 4.0 mi Calm Calm - N/A   Partly Cloudy
8:35 AM 30.2 °F - 28.4 °F 93% 30.15 in 1.8 mi Calm Calm - N/A   Scattered Clouds
8:44 AM 30.2 °F - 28.4 °F 93% 30.15 in 1.2 mi Calm Calm - N/A   Mostly Cloudy
8:49 AM 30.2 °F - 30.2 °F 100% 30.15 in 2.5 mi Calm Calm - N/A   Scattered Clouds
8:54 AM 30.9 °F - 30.0 °F 96% 30.13 in 6.0 mi Calm Calm - N/A   Scattered Clouds
9:06 AM 32.0 °F 27.5 °F 30.2 °F 93% 30.16 in 1.5 mi NNW 4.6 mph - N/A   Mostly Cloudy
9:08 AM 32.0 °F 27.5 °F 30.2 °F 93% 30.16 in 0.8 mi NNW 4.6 mph - N/A   Mist
9:16 AM 32.0 °F 28.7 °F 30.2 °F 93% 30.16 in 0.2 mi NNW 3.5 mph - N/A Fog Fog
9:54 AM 34.0 °F 29.8 °F 33.1 °F 96% 30.14 in 0.5 mi North 4.6 mph - N/A Fog Fog
10:09 AM 35.6 °F 31.7 °F 33.8 °F 93% 30.17 in 1.8 mi NNE 4.6 mph - N/A   Overcast
10:11 AM 35.6 °F 32.8 °F 33.8 °F 93% 30.17 in 3.0 mi NNE 3.5 mph - N/A   Overcast
10:52 AM 39.2 °F - 35.6 °F 87% 30.17 in 10.0 mi Calm Calm - N/A   Overcast
10:54 AM 37.9 °F 35.5 °F 35.1 °F 89% 30.13 in 10.0 mi NNW 3.5 mph - N/A   Overcast
11:44 AM 41.0 °F 38.0 °F 35.6 °F 81% 30.16 in 10.0 mi NW 4.6 mph - N/A   Scattered Clouds
11:54 AM 43.0 °F - 36.0 °F 76% 30.09 in 10.0 mi Calm Calm - N/A   Partly Cloudy
12:54 PM 46.0 °F 43.1 °F 35.1 °F 66% 30.06 in 10.0 mi Variable 5.8 mph - N/A   Partly Cloudy
1:54 PM 48.0 °F - 33.1 °F 56% 30.05 in 10.0 mi NNE 6.9 mph - N/A   Clear
2:54 PM 48.9 °F - 28.9 °F 46% 30.03 in 10.0 mi NNW 5.8 mph - N/A   Clear
3:54 PM 50.0 °F - 27.0 °F 41% 30.03 in 10.0 mi NW 4.6 mph - N/A   Clear
4:54 PM 48.9 °F - 28.0 °F 44% 30.02 in 10.0 mi West 5.8 mph - N/A   Clear
5:54 PM 45.0 °F 43.5 °F 27.0 °F 49% 30.03 in 10.0 mi SW 3.5 mph - N/A   Clear
6:54 PM 36.0 °F 33.3 °F 27.0 °F 70% 30.10 in 4.0 mi SW 3.5 mph - N/A   Haze
7:21 PM 33.8 °F 28.6 °F 26.6 °F 75% 30.10 in 10.0 mi West 5.8 mph 48.3 mph N/A   Squalls
7:54 PM 34.0 °F 29.8 °F 26.1 °F 73% 30.11 in 10.0 mi West 4.6 mph - N/A   Clear
8:54 PM 34.0 °F 31.0 °F 25.0 °F 70% 30.11 in 10.0 mi South 3.5 mph - N/A   Clear
9:54 PM 32.0 °F 25.6 °F 25.0 °F 75% 30.11 in 10.0 mi South 6.9 mph - N/A   Clear
10:54 PM 33.1 °F 24.9 °F 24.1 °F 70% 30.09 in 10.0 mi South 10.4 mph - N/A   Clear
11:54 PM 30.0 °F 25.2 °F 23.0 °F 75% 30.09 in 10.0 mi SSE 4.6 mph - N/A   Clear